SR6NWB-11 Weather Reports


time (UTC)temp
C
wind
direction
speed
KPH
gust
KPH
rain 1hr
cm
rain 24hr
cm
rain mn
cm
humidity
%
barometer
mb
20260506155057 18 0 0.0 0.0 0.00 0.00 0.00 47 1011.1
20260506154132 19 0 0.0 0.0 0.00 0.00 0.00 43 1011.1
20260506153327 20 0 0.0 0.0 0.00 0.00 0.00 42 1011.0
20260506152332 20 0 0.0 0.0 0.00 0.00 0.00 42 1011.0
20260506151452 21 0 0.0 0.0 0.00 0.00 0.00 41 1011.0
20260506150637 21 0 0.0 0.0 0.00 0.00 0.00 41 1011.1
20260506145712 21 0 0.0 0.0 0.00 0.00 0.00 41 1011.2
20260506144847 21 0 0.0 0.0 0.00 0.00 0.00 43 1011.2
20260506143922 21 0 0.0 0.0 0.00 0.00 0.00 44 1011.3
20260506142942 20 0 0.0 0.0 0.00 0.00 0.00 44 1011.3
20260506142132 20 0 0.0 0.0 0.00 0.00 0.00 46 1011.3
20260506141319 20 0 0.0 0.0 0.00 0.00 0.00 45 1011.2
20260506140402 20 0 0.0 0.0 0.00 0.00 0.00 48 1011.2
20260506135439 20 0 0.0 0.0 0.00 0.00 0.00 49 1011.5
20260506134617 20 0 0.0 0.0 0.00 0.00 0.00 50 1011.6
20260506133639 19 0 0.0 0.0 0.00 0.00 0.00 51 1011.5
20260506132719 18 0 0.0 0.0 0.00 0.00 0.00 54 1011.5
20260506131902 18 0 0.0 0.0 0.00 0.00 0.00 54 1011.5
20260506131022 18 0 0.0 0.0 0.00 0.00 0.00 54 1011.7
20260506130157 17 0 0.0 0.0 0.00 0.00 0.00 56 1011.5
20260506125319 17 0 0.0 0.0 0.00 0.00 0.00 57 1011.8
20260506124432 17 0 0.0 0.0 0.00 0.00 0.00 57 1011.6
20260506123522 17 0 0.0 0.0 0.00 0.00 0.00 59 1011.6
20260506122557 17 0 0.0 0.0 0.00 0.00 0.00 61 1011.6
20260506121602 16 0 0.0 0.0 0.00 0.00 0.00 65 1011.7
20260506120732 16 0 0.0 0.0 0.00 0.00 0.00 66 1011.7
20260506115917 16 0 0.0 0.0 0.00 0.00 0.00 67 1011.9
20260506114917 16 0 0.0 0.0 0.00 0.00 0.00 68 1011.8
20260506113927 16 0 0.0 0.0 0.00 0.00 0.00 68 1011.7
20260506113032 15 0 0.0 0.0 0.00 0.00 0.00 70 1011.7
20260506112229 15 0 0.0 0.0 0.00 0.00 0.00 74 1011.7
20260506111352 15 0 0.0 0.0 0.00 0.00 0.00 74 1011.7
20260506110547 14 0 0.0 0.0 0.00 0.00 0.00 76 1011.6
20260506105707 14 0 0.0 0.0 0.00 0.00 0.00 75 1011.5
20260506104707 14 0 0.0 0.0 0.00 0.00 0.00 77 1011.7
20260506103707 14 0 0.0 0.0 0.00 0.00 0.00 79 1011.6
20260506102707 13 0 0.0 0.0 0.00 0.00 0.00 79 1011.6
20260506101839 13 0 0.0 0.0 0.00 0.00 0.00 79 1011.5
20260506100904 13 0 0.0 0.0 0.00 0.00 0.00 81 1011.6
20260506095959 13 0 0.0 0.0 0.00 0.00 0.00 81 1011.4
20260506095152 13 0 0.0 0.0 0.00 0.00 0.00 82 1011.5
20260506094326 13 0 0.0 0.0 0.00 0.00 0.00 83 1011.5
20260506093332 13 0 0.0 0.0 0.00 0.00 0.00 84 1011.5
20260506092332 13 0 0.0 0.0 0.00 0.00 0.00 84 1011.4
20260506091532 12 0 0.0 0.0 0.00 0.00 0.00 85 1011.4
20260506090559 12 0 0.0 0.0 0.00 0.00 0.00 86 1011.2
20260506085727 12 0 0.0 0.0 0.00 0.00 0.00 86 1011.4
20260506084832 12 0 0.0 0.0 0.00 0.00 0.00 85 1011.1
20260506083902 12 0 0.0 0.0 0.00 0.00 0.00 86 1011.1
20260506082947 13 0 0.0 0.0 0.00 0.00 0.00 86 1011.0
20260506082137 13 0 0.0 0.0 0.00 0.00 0.00 86 1011.0
20260506081259 13 0 0.0 0.0 0.00 0.00 0.00 88 1010.9
20260506080332 12 0 0.0 0.0 0.00 0.00 0.00 88 1010.8
20260506072737 12 0 0.0 0.0 0.00 0.00 0.00 92 1010.7
20260506071837 11 0 0.0 0.0 0.00 0.00 0.00 92 1010.6
20260506070837 11 0 0.0 0.0 0.00 0.00 0.00 93 1010.3
20260506061602 12 0 0.0 0.0 0.00 0.00 0.00 93 1010.2
20260506060757 12 0 0.0 0.0 0.00 0.00 0.00 93 1010.1
20260506050442 11 0 0.0 0.0 0.00 0.00 0.00 96 1009.6
20260506044642 11 0 0.0 0.0 0.00 0.00 0.00 97 1009.7
20260506043737 11 0 0.0 0.0 0.00 0.00 0.00 97 1009.5
20260506042829 11 0 0.0 0.0 0.00 0.00 0.00 97 1009.6
20260506041852 11 0 0.0 0.0 0.00 0.00 0.00 96 1009.5
20260506040947 11 0 0.0 0.0 0.00 0.00 0.00 95 1009.6
20260506035232 11 0 0.0 0.0 0.00 0.00 0.00 92 1009.4
20260506034427 11 0 0.0 0.0 0.00 0.00 0.00 90 1009.3
20260506033447 11 0 0.0 0.0 0.00 0.00 0.00 88 1009.4
20260506032647 11 0 0.0 0.0 0.00 0.00 0.00 88 1009.4
20260506031702 11 0 0.0 0.0 0.00 0.00 0.00 89 1009.4
20260506030727 11 0 0.0 0.0 0.00 0.00 0.00 89 1009.4
20260506025730 11 0 0.0 0.0 0.00 0.00 0.00 89 1009.5
20260506024919 11 0 0.0 0.0 0.00 0.00 0.00 90 1009.5
20260506024032 11 0 0.0 0.0 0.00 0.00 0.00 91 1009.5
20260506023032 11 0 0.0 0.0 0.00 0.00 0.00 91 1009.6
20260506022152 11 0 0.0 0.0 0.00 0.00 0.00 92 1009.5
20260506021152 11 0 0.0 0.0 0.00 0.00 0.00 93 1009.6
20260506020242 11 0 0.0 0.0 0.00 0.00 0.00 93 1009.8
20260506015422 11 0 0.0 0.0 0.00 0.00 0.00 93 1010.1
20260506014457 11 0 0.0 0.0 0.00 0.00 0.00 92 1010.3
20260506013527 11 0 0.0 0.0 0.00 0.00 0.00 91 1010.1
20260506012537 11 0 0.0 0.0 0.00 0.00 0.00 89 1010.2
20260506011657 11 0 0.0 0.0 0.00 0.00 0.00 88 1010.2
20260506005859 11 0 0.0 0.0 0.00 0.00 0.00 89 1010.2
20260506005032 12 0 0.0 0.0 0.00 0.00 0.00 91 1010.3
20260506004227 12 0 0.0 0.0 0.00 0.00 0.00 92 1010.2
20260506003307 12 0 0.0 0.0 0.00 0.00 0.00 93 1010.1
20260506002307 12 0 0.0 0.0 0.00 0.00 0.00 93 1010.0
20260506001417 12 0 0.0 0.0 0.00 0.00 0.00 94 1010.1
20260506000607 11 0 0.0 0.0 0.00 0.00 0.00 95 1010.1
20260505235702 11 0 0.0 0.0 0.00 0.00 0.00 95 1010.3
20260505234817 11 0 0.0 0.0 0.00 0.00 0.00 94 1010.5
20260505234012 12 0 0.0 0.0 0.00 0.00 0.00 93 1010.7
20260505233107 12 0 0.0 0.0 0.00 0.00 0.00 93 1010.7
20260505232147 12 0 0.0 0.0 0.00 0.00 0.00 93 1010.6
20260505231232 12 0 0.0 0.0 0.00 0.00 0.00 93 1010.5
20260505230347 12 0 0.0 0.0 0.00 0.00 0.00 94 1010.4
20260505225357 12 0 0.0 0.0 0.00 0.00 0.00 95 1010.6
20260505224542 11 0 0.0 0.0 0.00 0.00 0.00 96 1010.5
20260505223612 11 0 0.0 0.0 0.00 0.00 0.00 96 1010.6
20260505222747 11 0 0.0 0.0 0.00 0.00 0.00 97 1010.7
20260505221912 11 0 0.0 0.0 0.00 0.00 0.00 97 1010.8
20260505220922 11 0 0.0 0.0 0.00 0.00 0.00 97 1010.9
20260505220022 11 0 0.0 0.0 0.00 0.00 0.00 97 1011.1
20260505215102 11 0 0.0 0.0 0.00 0.00 0.00 97 1011.2
20260505214152 11 0 0.0 0.0 0.00 0.00 0.00 97 1011.2
20260505213222 12 0 0.0 0.0 0.00 0.00 0.00 95 1011.3
20260505212412 12 0 0.0 0.0 0.00 0.00 0.00 94 1011.4
20260505211557 12 0 0.0 0.0 0.00 0.00 0.00 92 1011.4
20260505210732 12 0 0.0 0.0 0.00 0.00 0.00 91 1011.4
20260505205732 12 0 0.0 0.0 0.00 0.00 0.00 90 1011.5
20260505204737 12 0 0.0 0.0 0.00 0.00 0.00 90 1011.7
20260505203807 12 0 0.0 0.0 0.00 0.00 0.00 90 1011.7
20260505202947 12 0 0.0 0.0 0.00 0.00 0.00 89 1011.7
20260505202007 13 0 0.0 0.0 0.00 0.00 0.00 89 1011.7
20260505201207 13 0 0.0 0.0 0.00 0.00 0.00 89 1011.7
20260505200352 13 0 0.0 0.0 0.00 0.00 0.00 89 1011.6
20260505195513 13 0 0.0 0.0 0.00 0.00 0.00 89 1011.6
20260505194517 13 0 0.0 0.0 0.00 0.00 0.00 87 1011.6
20260505193612 13 0 0.0 0.0 0.00 0.00 0.00 86 1011.6
20260505192747 13 0 0.0 0.0 0.00 0.00 0.00 85 1011.5
20260505191840 13 0 0.0 0.0 0.00 0.00 0.00 84 1011.7
20260505190847 13 0 0.0 0.0 0.00 0.00 0.00 83 1011.7
20260505185952 14 0 0.0 0.0 0.00 0.00 0.00 82 1011.7
20260505185037 14 0 0.0 0.0 0.00 0.00 0.00 81 1011.7
20260505184102 14 0 0.0 0.0 0.00 0.00 0.00 79 1011.6
20260505183137 15 0 0.0 0.0 0.00 0.00 0.00 78 1011.7
20260505182322 15 0 0.0 0.0 0.00 0.00 0.00 76 1011.8
20260505181347 15 0 0.0 0.0 0.00 0.00 0.00 75 1011.8
20260505180447 15 0 0.0 0.0 0.00 0.00 0.00 74 1011.8
20260505175527 15 0 0.0 0.0 0.00 0.00 0.00 71 1012.0
20260505174552 16 0 0.0 0.0 0.00 0.00 0.00 69 1012.0
20260505173707 16 0 0.0 0.0 0.00 0.00 0.00 68 1011.9
20260505172707 16 0 0.0 0.0 0.00 0.00 0.00 65 1012.0
20260505171847 16 0 0.0 0.0 0.00 0.00 0.00 62 1011.9
20260505170927 17 0 0.0 0.0 0.00 0.00 0.00 55 1011.8
20260505170107 18 0 0.0 0.0 0.00 0.00 0.00 49 1012.1
20260505165212 18 0 0.0 0.0 0.00 0.00 0.00 44 1011.8
20260505164322 19 0 0.0 0.0 0.00 0.00 0.00 38 1011.8
20260505163407 20 0 0.0 0.0 0.00 0.00 0.00 37 1011.8
20260505162452 20 0 0.0 0.0 0.00 0.00 0.00 37 1011.8
20260505161652 20 0 0.0 0.0 0.00 0.00 0.00 36 1011.9
20260505160812 21 0 0.0 0.0 0.00 0.00 0.00 35 1011.9